User: anonymous   Login
Location: La Coruña
(43.3623°N, 8.4115°W)
Time: 21:40:00
(UTC+02:00)
Language:

STARLINK-1118 - Orbit

View from above orbital plane
View from above orbital plane
View from above satellite
View from above satellite

Ground track
Ground track

The orbit data is extracted from the following two-line orbital elements,

1 44948U 20001AL  20090.89315812 +.00306206 +59167-4 +26902-3 0  9991
2 44948 052.9946 332.4545 0002313 268.9417 091.0327 16.12525555013315
Epoch (UTC): 30 March 2020 21:26:08
Eccentricity: 0.0002313
inclination: 52.9946°
perigee height: 238 km
apogee height: 241 km
right ascension of ascending node: 332.4545°
argument of perigee: 268.9417°
revolutions per day: 16.12525555
mean anomaly at epoch: 91.0327°
orbit number at epoch: 1331

The dashed part of the orbit path shows where the satellite is in the earth's shadow,  

DLR